Time,TemperatureF,DewpointF,PressureIn,WindDirection,WindDirectionDegrees,WindSpeedMPH,WindSpeedGustMPH,Humidity,HourlyPrecipIn,Conditions,Clouds,dailyrainin,SoftwareType,DateUTC
2013-02-27 00:02:00,61.0,57.0,29.66,NW,304,2.0,9.0,88,0.00,,,0.76,,2013-02-27 05:02:00,
2013-02-27 00:12:00,61.0,57.0,29.66,NW,304,2.0,9.0,88,0.00,,,0.76,,2013-02-27 05:12:00,
2013-02-27 00:22:00,60.0,57.0,29.66,West,266,3.0,8.0,91,0.00,,,0.76,,2013-02-27 05:22:00,
2013-02-27 00:32:00,59.0,57.0,29.66,West,269,2.0,4.0,92,0.00,,,0.75,,2013-02-27 05:32:00,
2013-02-27 00:42:00,59.0,57.0,29.66,West,269,2.0,4.0,92,0.00,,,0.75,,2013-02-27 05:42:00,
2013-02-27 00:52:00,58.0,56.0,29.67,West,271,2.0,5.0,93,0.00,,,0.75,,2013-02-27 05:52:00,
2013-02-27 01:02:00,57.0,55.0,29.68,West,273,2.0,8.0,94,0.00,,,0.75,,2013-02-27 06:02:00,
2013-02-27 01:11:00,57.0,55.0,29.68,West,273,2.0,8.0,94,0.00,,,0.75,,2013-02-27 06:11:00,
2013-02-27 01:21:00,57.0,55.0,29.68,West,281,3.0,8.0,94,0.00,,,0.75,,2013-02-27 06:21:00,
2013-02-27 01:33:00,56.0,54.0,29.70,West,267,3.0,8.0,94,0.00,,,0.74,,2013-02-27 06:33:00,
2013-02-27 01:42:00,56.0,54.0,29.70,West,267,3.0,8.0,94,0.00,,,0.74,,2013-02-27 06:42:00,
2013-02-27 01:52:00,56.0,54.0,29.70,WSW,244,5.0,12.0,94,0.00,,,0.74,,2013-02-27 06:52:00,
2013-02-27 02:01:00,56.0,54.0,29.70,West,263,4.0,10.0,94,0.00,,,0.74,,2013-02-27 07:01:00,
2013-02-27 02:12:00,56.0,54.0,29.70,West,263,4.0,10.0,94,0.00,,,0.74,,2013-02-27 07:12:00,
2013-02-27 02:21:00,54.0,51.0,29.72,West,267,6.0,17.0,91,0.00,,,0.74,,2013-02-27 07:21:00,
2013-02-27 02:32:00,53.0,49.0,29.72,NNW,338,5.0,18.0,87,0.00,,,0.74,,2013-02-27 07:32:00,
2013-02-27 02:42:00,53.0,49.0,29.72,NNW,338,5.0,18.0,87,0.00,,,0.74,,2013-02-27 07:42:00,
2013-02-27 02:51:00,53.0,48.0,29.72,WSW,242,7.0,16.0,84,0.00,,,0.74,,2013-02-27 07:51:00,
2013-02-27 03:01:00,52.0,47.0,29.72,West,279,5.0,18.0,83,0.00,,,0.74,,2013-02-27 08:01:00,
2013-02-27 03:11:00,52.0,47.0,29.72,West,279,5.0,18.0,83,0.00,,,0.74,,2013-02-27 08:11:00,
2013-02-27 03:21:00,52.0,47.0,29.71,West,259,7.0,13.0,84,0.00,,,0.74,,2013-02-27 08:21:00,
2013-02-27 03:32:00,51.0,46.0,29.72,West,260,6.0,15.0,84,0.00,,,0.74,,2013-02-27 08:32:00,
2013-02-27 03:42:00,51.0,46.0,29.72,West,260,6.0,15.0,84,0.00,,,0.74,,2013-02-27 08:42:00,
2013-02-27 03:52:00,51.0,46.0,29.73,West,266,4.0,15.0,83,0.00,,,0.74,,2013-02-27 08:52:00,
2013-02-27 04:02:00,51.0,45.0,29.74,WNW,298,5.0,11.0,81,0.00,,,0.74,,2013-02-27 09:02:00,
2013-02-27 04:12:00,51.0,45.0,29.74,WNW,298,5.0,11.0,81,0.00,,,0.74,,2013-02-27 09:12:00,
2013-02-27 04:22:00,51.0,45.0,29.73,West,262,5.0,11.0,81,0.00,,,0.74,,2013-02-27 09:22:00,
2013-02-27 04:32:00,50.0,45.0,29.74,WNW,294,5.0,11.0,82,0.00,,,0.74,,2013-02-27 09:32:00,
2013-02-27 04:41:00,50.0,45.0,29.74,WNW,294,5.0,11.0,82,0.00,,,0.74,,2013-02-27 09:41:00,
2013-02-27 04:51:00,50.0,45.0,29.74,WNW,294,5.0,11.0,82,0.00,,,0.74,,2013-02-27 09:51:00,
2013-02-27 05:01:00,50.0,45.0,29.76,WSW,253,3.0,11.0,83,0.00,,,0.74,,2013-02-27 10:01:00,
2013-02-27 05:12:00,50.0,45.0,29.76,WSW,253,3.0,11.0,83,0.00,,,0.74,,2013-02-27 10:12:00,
2013-02-27 05:22:00,50.0,45.0,29.76,WSW,253,3.0,11.0,83,0.00,,,0.74,,2013-02-27 10:22:00,
2013-02-27 05:32:00,50.0,45.0,29.77,WSW,238,8.0,18.0,82,0.00,,,0.72,,2013-02-27 10:32:00,
2013-02-27 05:42:00,50.0,45.0,29.77,WSW,238,8.0,18.0,82,0.00,,,0.72,,2013-02-27 10:42:00,
2013-02-27 05:53:00,50.0,45.0,29.77,WSW,238,8.0,18.0,82,0.00,,,0.72,,2013-02-27 10:53:00,
2013-02-27 06:02:00,49.0,43.0,29.78,WSW,250,4.0,9.0,80,0.00,,,0.72,,2013-02-27 11:02:00,
2013-02-27 06:12:00,49.0,43.0,29.78,WSW,250,4.0,9.0,80,0.00,,,0.72,,2013-02-27 11:12:00,
2013-02-27 06:22:00,49.0,43.0,29.78,WSW,246,4.0,9.0,79,0.00,,,0.72,,2013-02-27 11:22:00,
2013-02-27 06:32:00,49.0,43.0,29.79,South,172,4.0,11.0,79,0.00,,,0.69,,2013-02-27 11:32:00,
2013-02-27 06:42:00,49.0,43.0,29.79,South,172,4.0,11.0,79,0.00,,,0.69,,2013-02-27 11:42:00,
2013-02-27 06:52:00,49.0,42.0,29.79,West,272,6.0,12.0,78,0.00,,,0.69,,2013-02-27 11:52:00,
2013-02-27 07:02:00,49.0,42.0,29.80,WSW,248,4.0,21.0,77,0.00,,,0.69,,2013-02-27 12:02:00,
2013-02-27 07:13:00,49.0,42.0,29.80,WSW,248,4.0,21.0,77,0.00,,,0.69,,2013-02-27 12:13:00,
2013-02-27 07:22:00,48.0,41.0,29.79,West,271,5.0,14.0,77,0.00,,,0.69,,2013-02-27 12:22:00,
2013-02-27 07:33:00,48.0,41.0,29.80,SSW,207,3.0,19.0,76,0.00,,,0.67,,2013-02-27 12:33:00,
2013-02-27 07:42:00,48.0,41.0,29.80,SSW,207,3.0,19.0,76,0.00,,,0.67,,2013-02-27 12:42:00,
2013-02-27 07:53:00,48.0,41.0,29.81,WSW,251,6.0,16.0,76,0.00,,,0.67,,2013-02-27 12:53:00,
2013-02-27 08:02:00,48.0,40.0,29.82,West,260,9.0,20.0,75,0.00,,,0.67,,2013-02-27 13:02:00,
2013-02-27 08:11:00,48.0,40.0,29.82,West,260,9.0,20.0,75,0.00,,,0.67,,2013-02-27 13:11:00,
2013-02-27 08:22:00,48.0,40.0,29.81,West,266,6.0,15.0,75,0.00,,,0.67,,2013-02-27 13:22:00,
2013-02-27 08:32:00,48.0,40.0,29.83,NNE,15,5.0,16.0,73,0.00,,,0.54,,2013-02-27 13:32:00,
2013-02-27 08:42:00,48.0,40.0,29.83,NNE,15,5.0,16.0,73,0.00,,,0.54,,2013-02-27 13:42:00,
2013-02-27 08:52:00,48.0,39.0,29.83,West,264,6.0,15.0,72,0.00,,,0.54,,2013-02-27 13:52:00,
2013-02-27 09:02:00,48.0,39.0,29.84,WSW,255,7.0,18.0,71,0.00,,,0.54,,2013-02-27 14:02:00,
2013-02-27 09:12:00,48.0,39.0,29.84,WSW,255,7.0,18.0,71,0.00,,,0.54,,2013-02-27 14:12:00,
2013-02-27 09:22:00,49.0,40.0,29.84,WSW,257,9.0,18.0,70,0.00,,,0.54,,2013-02-27 14:22:00,
2013-02-27 09:32:00,49.0,39.0,29.85,West,275,12.0,24.0,67,0.00,,,0.47,,2013-02-27 14:32:00,
2013-02-27 09:42:00,49.0,39.0,29.85,West,275,12.0,24.0,67,0.00,,,0.47,,2013-02-27 14:42:00,
2013-02-27 09:52:00,50.0,39.0,29.84,West,271,6.0,20.0,67,0.00,,,0.47,,2013-02-27 14:52:00,
2013-02-27 10:02:00,50.0,39.0,29.85,West,271,8.0,23.0,65,0.00,,,0.47,,2013-02-27 15:02:00,
2013-02-27 10:12:00,50.0,39.0,29.85,West,271,8.0,23.0,65,0.00,,,0.47,,2013-02-27 15:12:00,
2013-02-27 10:22:00,50.0,38.0,29.84,West,263,5.0,18.0,64,0.00,,,0.47,,2013-02-27 15:22:00,
2013-02-27 10:32:00,51.0,39.0,29.84,WSW,241,5.0,19.0,64,0.00,,,0.42,,2013-02-27 15:32:00,
2013-02-27 10:42:00,51.0,39.0,29.84,WSW,241,5.0,19.0,64,0.00,,,0.42,,2013-02-27 15:42:00,
2013-02-27 10:52:00,52.0,39.0,29.84,SW,218,7.0,14.0,62,0.00,,,0.42,,2013-02-27 15:52:00,
2013-02-27 11:02:00,52.0,39.0,29.85,WSW,258,7.0,21.0,60,0.00,,,0.42,,2013-02-27 16:02:00,
2013-02-27 11:12:00,52.0,39.0,29.85,WSW,258,7.0,21.0,60,0.00,,,0.42,,2013-02-27 16:12:00,
2013-02-27 11:22:00,52.0,39.0,29.85,SW,230,6.0,17.0,60,0.00,,,0.42,,2013-02-27 16:22:00,
2013-02-27 11:32:00,54.0,40.0,29.84,NNW,331,4.0,14.0,59,0.00,,,0.37,,2013-02-27 16:32:00,
2013-02-27 11:42:00,54.0,40.0,29.84,NNW,331,4.0,14.0,59,0.00,,,0.37,,2013-02-27 16:42:00,
2013-02-27 11:52:00,54.0,40.0,29.84,SW,222,6.0,11.0,58,0.00,,,0.37,,2013-02-27 16:52:00,
2013-02-27 12:02:00,55.0,41.0,29.83,NW,309,4.0,9.0,58,0.00,,,0.37,,2013-02-27 17:02:00,
2013-02-27 12:11:00,55.0,41.0,29.83,NW,309,4.0,9.0,58,0.00,,,0.37,,2013-02-27 17:11:00,
2013-02-27 12:21:00,55.0,41.0,29.83,SW,227,1.0,8.0,58,0.00,,,0.37,,2013-02-27 17:21:00,
2013-02-27 12:32:00,55.0,40.0,29.82,SSW,194,4.0,9.0,57,0.00,,,0.22,,2013-02-27 17:32:00,
2013-02-27 12:42:00,55.0,40.0,29.82,SSW,194,4.0,9.0,57,0.00,,,0.22,,2013-02-27 17:42:00,
2013-02-27 12:52:00,56.0,41.0,29.81,West,265,4.0,12.0,57,0.00,,,0.22,,2013-02-27 17:52:00,
2013-02-27 13:02:00,56.0,41.0,29.80,West,279,3.0,9.0,57,0.00,,,0.22,,2013-02-27 18:02:00,
2013-02-27 13:11:00,56.0,41.0,29.80,West,279,3.0,9.0,57,0.00,,,0.22,,2013-02-27 18:11:00,
2013-02-27 13:22:00,56.0,41.0,29.80,SSW,203,4.0,10.0,57,0.00,,,0.22,,2013-02-27 18:22:00,
2013-02-27 13:32:00,57.0,42.0,29.80,WSW,244,4.0,12.0,57,0.00,,,0.02,,2013-02-27 18:32:00,
2013-02-27 13:42:00,57.0,42.0,29.80,WSW,244,4.0,12.0,57,0.00,,,0.02,,2013-02-27 18:42:00,
2013-02-27 13:52:00,57.0,41.0,29.80,West,261,5.0,11.0,55,0.00,,,0.02,,2013-02-27 18:52:00,
2013-02-27 14:01:00,58.0,42.0,29.80,WSW,258,3.0,9.0,55,0.00,,,0.02,,2013-02-27 19:01:00,
2013-02-27 14:12:00,58.0,42.0,29.80,WSW,258,3.0,9.0,55,0.00,,,0.02,,2013-02-27 19:12:00,
2013-02-27 14:21:00,57.0,41.0,29.79,WSW,247,1.0,11.0,55,0.00,,,0.02,,2013-02-27 19:21:00,
2013-02-27 14:32:00,58.0,43.0,29.79,SSW,199,5.0,12.0,57,0.00,,,0.00,,2013-02-27 19:32:00,
2013-02-27 14:42:00,58.0,43.0,29.79,SSW,199,5.0,12.0,57,0.00,,,0.00,,2013-02-27 19:42:00,
2013-02-27 14:52:00,57.0,41.0,29.79,WSW,256,7.0,17.0,56,0.00,,,0.00,,2013-02-27 19:52:00,
2013-02-27 15:02:00,58.0,42.0,29.78,WNW,293,4.0,13.0,56,0.00,,,0.00,,2013-02-27 20:02:00,
2013-02-27 15:12:00,58.0,42.0,29.78,WNW,293,4.0,13.0,56,0.00,,,0.00,,2013-02-27 20:12:00,
2013-02-27 15:22:00,58.0,42.0,29.78,West,262,6.0,13.0,55,0.00,,,0.00,,2013-02-27 20:22:00,
2013-02-27 15:32:00,58.0,42.0,29.78,SW,229,6.0,14.0,56,0.00,,,0.00,,2013-02-27 20:32:00,
2013-02-27 15:42:00,58.0,42.0,29.78,SW,229,6.0,14.0,56,0.00,,,0.00,,2013-02-27 20:42:00,
2013-02-27 15:52:00,58.0,42.0,29.78,West,267,7.0,13.0,56,0.00,,,0.00,,2013-02-27 20:52:00,
2013-02-27 16:02:00,58.0,43.0,29.78,West,268,4.0,10.0,57,0.00,,,0.00,,2013-02-27 21:02:00,
2013-02-27 16:11:00,58.0,43.0,29.78,West,268,4.0,10.0,57,0.00,,,0.00,,2013-02-27 21:11:00,
2013-02-27 16:22:00,58.0,43.0,29.77,West,262,5.0,11.0,57,0.00,,,0.00,,2013-02-27 21:22:00,
2013-02-27 16:32:00,58.0,43.0,29.77,WSW,252,3.0,8.0,57,0.00,,,0.00,,2013-02-27 21:32:00,
2013-02-27 16:42:00,58.0,43.0,29.77,WSW,252,3.0,8.0,57,0.00,,,0.00,,2013-02-27 21:42:00,
2013-02-27 16:52:00,58.0,43.0,29.77,West,262,5.0,9.0,58,0.00,,,0.00,,2013-02-27 21:52:00,
2013-02-27 17:01:00,57.0,42.0,29.77,SW,215,3.0,7.0,58,0.00,,,0.00,,2013-02-27 22:01:00,
2013-02-27 17:11:00,57.0,42.0,29.77,SW,215,3.0,7.0,58,0.00,,,0.00,,2013-02-27 22:11:00,
2013-02-27 17:21:00,57.0,43.0,29.77,SE,136,2.0,6.0,59,0.00,,,0.00,,2013-02-27 22:21:00,
2013-02-27 17:32:00,57.0,43.0,29.77,SSW,207,2.0,8.0,60,0.00,,,0.00,,2013-02-27 22:32:00,
2013-02-27 17:42:00,57.0,43.0,29.77,SSW,207,2.0,8.0,60,0.00,,,0.00,,2013-02-27 22:42:00,
2013-02-27 17:52:00,57.0,44.0,29.77,SW,223,4.0,9.0,61,0.00,,,0.00,,2013-02-27 22:52:00,
2013-02-27 18:01:00,57.0,44.0,29.77,SW,223,4.0,9.0,61,0.00,,,0.00,,2013-02-27 23:01:00,
2013-02-27 18:11:00,57.0,44.0,29.77,SW,223,4.0,9.0,61,0.00,,,0.00,,2013-02-27 23:11:00,
2013-02-27 18:22:00,56.0,43.0,29.78,WSW,251,2.0,6.0,62,0.00,,,0.00,,2013-02-27 23:22:00,
2013-02-27 18:32:00,56.0,44.0,29.78,SW,216,0.0,5.0,63,0.00,,,0.00,,2013-02-27 23:32:00,
2013-02-27 18:42:00,56.0,44.0,29.78,SW,216,0.0,5.0,63,0.00,,,0.00,,2013-02-27 23:42:00,
2013-02-27 18:53:00,55.0,43.0,29.78,WSW,248,0.0,5.0,65,0.00,,,0.00,,2013-02-27 23:53:00,
2013-02-27 19:02:00,55.0,44.0,29.78,SSW,211,1.0,4.0,66,0.00,,,0.00,,2013-02-28 00:02:00,
2013-02-27 19:12:00,55.0,44.0,29.78,SSW,211,1.0,4.0,66,0.00,,,0.00,,2013-02-28 00:12:00,
2013-02-27 19:21:00,54.0,43.0,29.78,SW,217,1.0,3.0,67,0.00,,,0.00,,2013-02-28 00:21:00,
2013-02-27 19:32:00,53.0,43.0,29.79,SW,219,0.0,3.0,69,0.00,,,0.00,,2013-02-28 00:32:00,
2013-02-27 19:42:00,53.0,43.0,29.79,SW,219,0.0,3.0,69,0.00,,,0.00,,2013-02-28 00:42:00,
2013-02-27 19:52:00,53.0,43.0,29.79,SW,219,0.0,2.0,70,0.00,,,0.00,,2013-02-28 00:52:00,
2013-02-27 20:01:00,53.0,44.0,29.78,WSW,253,1.0,5.0,72,0.00,,,0.00,,2013-02-28 01:01:00,
2013-02-27 20:11:00,53.0,44.0,29.78,WSW,253,1.0,5.0,72,0.00,,,0.00,,2013-02-28 01:11:00,
2013-02-27 20:22:00,53.0,45.0,29.78,WSW,249,2.0,7.0,73,0.00,,,0.00,,2013-02-28 01:22:00,
2013-02-27 20:32:00,53.0,45.0,29.79,SSW,196,1.0,4.0,74,0.00,,,0.00,,2013-02-28 01:32:00,
2013-02-27 20:42:00,53.0,45.0,29.79,SSW,196,1.0,4.0,74,0.00,,,0.00,,2013-02-28 01:42:00,
2013-02-27 20:52:00,52.0,45.0,29.79,SSW,202,1.0,7.0,76,0.00,,,0.00,,2013-02-28 01:52:00,
2013-02-27 21:01:00,52.0,45.0,29.79,WSW,250,3.0,7.0,76,0.00,,,0.00,,2013-02-28 02:01:00,
2013-02-27 21:11:00,52.0,45.0,29.79,WSW,250,3.0,7.0,76,0.00,,,0.00,,2013-02-28 02:11:00,
2013-02-27 21:22:00,52.0,45.0,29.79,SW,235,3.0,7.0,76,0.00,,,0.00,,2013-02-28 02:22:00,
2013-02-27 21:32:00,52.0,45.0,29.79,SSW,200,1.0,7.0,76,0.00,,,0.00,,2013-02-28 02:32:00,
2013-02-27 21:41:00,52.0,45.0,29.79,SSW,200,1.0,7.0,76,0.00,,,0.00,,2013-02-28 02:41:00,
2013-02-27 21:52:00,52.0,45.0,29.79,SSW,200,1.0,7.0,76,0.00,,,0.00,,2013-02-28 02:52:00,
2013-02-27 22:01:00,51.0,44.0,29.79,SW,229,2.0,6.0,76,0.00,,,0.00,,2013-02-28 03:01:00,
2013-02-27 22:11:00,51.0,44.0,29.79,SW,229,2.0,6.0,76,0.00,,,0.00,,2013-02-28 03:11:00,
2013-02-27 22:21:00,52.0,44.0,29.79,SSW,204,3.0,10.0,75,0.00,,,0.00,,2013-02-28 03:21:00,
2013-02-27 22:32:00,52.0,44.0,29.79,SW,227,3.0,9.0,74,0.00,,,0.00,,2013-02-28 03:32:00,
2013-02-27 22:42:00,52.0,44.0,29.79,SW,227,3.0,9.0,74,0.00,,,0.00,,2013-02-28 03:42:00,
2013-02-27 22:52:00,52.0,44.0,29.79,SW,225,4.0,11.0,74,0.00,,,0.00,,2013-02-28 03:52:00,
2013-02-27 23:02:00,52.0,44.0,29.79,WSW,240,5.0,12.0,74,0.00,,,0.00,,2013-02-28 04:02:00,
2013-02-27 23:11:00,52.0,44.0,29.79,WSW,240,5.0,12.0,74,0.00,,,0.00,,2013-02-28 04:11:00,
2013-02-27 23:22:00,51.0,43.0,29.79,WSW,252,3.0,12.0,74,0.00,,,0.00,,2013-02-28 04:22:00,
2013-02-27 23:32:00,51.0,43.0,29.79,WSW,252,3.0,12.0,74,0.00,,,0.00,,2013-02-28 04:32:00,
2013-02-27 23:42:00,51.0,43.0,29.79,WSW,252,3.0,12.0,74,0.00,,,0.00,,2013-02-28 04:42:00,
2013-02-27 23:52:00,51.0,43.0,29.79,WSW,246,2.0,13.0,75,0.00,,,0.00,,2013-02-28 04:52:00,